Stations météo

réclame
Mon MeteoGroup
Eskilstuna, Suède (2449): Température de l'air & dewpoint: 14.10.2018 19:00:00 - 20.10.2018 19:00:00 (CEST)Eskilstuna, Suède (2449): Vitesse du vent & gusts: 14.10.2018 19:00:00 - 20.10.2018 19:00:00 (CEST)Eskilstuna, Suède (2449): Direction du vent: 14.10.2018 19:00:00 - 20.10.2018 19:00:00 (CEST)Eskilstuna, Suède (2449): reduced air pressure: 14.10.2018 19:00:00 - 20.10.2018 19:00:00 (CEST)Eskilstuna, Suède (2449): visibility: 14.10.2018 19:00:00 - 20.10.2018 19:00:00 (CEST)Eskilstuna, Suède (2449): Quantités de précipitations: 14.10.2018 19:00:00 - 20.10.2018 19:00:00 (CEST)
Date & Time tt [°C] td [°C] ff [km/h] ff [knt] fx [km/h] fx [knt] dd ppp [hPa] vv [km] rr [mm]
20.10.2018 19:00:00 3,0 1,1 0 0 21 12 N 1022,9 3,1 0,0
20.10.2018 18:00:00 5,4 2,7 3 2 21 12 WSW 1022,8 12 0,0
20.10.2018 17:00:00 7,5 5,0 9 5 16 9 W 1022,5 18 0,0
20.10.2018 16:00:00 8,2 5,5 8 4 18 10 WNW 1022,0 16 0,0
20.10.2018 15:00:00 9,0 5,2 10 5 20 11 W 1022,1 13 0,0
20.10.2018 14:00:00 9,7 5,5 15 8 20 11 WSW 1021,9 15 0,0
20.10.2018 13:00:00 10,3 5,9 9 5 12 6 W 1021,4 15 0,0
20.10.2018 12:00:00 10,2 5,2 2 1 8 4 SW 1021,4 12 0,0
20.10.2018 11:00:00 9,1 4,7 3 1 6 4 W 1021,1 16 0,0
20.10.2018 10:00:00 7,1 4,2 0 0 5 3 N 1020,8 37 0,0
20.10.2018 09:00:00 5,6 2,9 0 0 5 3 N 1020,4 23 0,0
20.10.2018 08:00:00 5,0 2,7 2 1 5 3 SE 1020,1 26 0,0
20.10.2018 07:00:00 5,1 2,5 0 0 5 3 N 1019,8 28 0,0
20.10.2018 06:00:00 4,9 2,3 0 0 4 2 N 1019,9 22 0,0
20.10.2018 05:00:00 4,6 1,8 0 0 4 2 N 1019,9 12 0,0
20.10.2018 04:00:00 3,7 0,6 0 0 4 2 N 1019,9 24 0,0
20.10.2018 03:00:00 3,2 0,4 0 0 4 2 N 1020,1 14 0,0
20.10.2018 02:00:00 2,5 -0,1 0 0 4 2 N 1020,7 46 0,0
20.10.2018 01:00:00 1,5 -1,7 0 0 4 2 N 1021,0 35 0,0
20.10.2018 00:00:00 0,8 -2,1 0 0 5 3 N 1021,2 32 0,0
19.10.2018 23:00:00 0,6 -1,5 4 2 5 3 WSW 1021,3 37 0,0
19.10.2018 22:00:00 0,2 -2,2 0 0 5 3 N 1021,6 0,8 0,0
19.10.2018 21:00:00 1,4 -0,5 3 1 5 3 WSW 1021,8 13 0,0
19.10.2018 20:00:00 1,6 -0,8 0 0 3 1 N 1021,7 0,7 0,0
19.10.2018 19:00:00 4,2 1,4 0 0 6 3 N 1021,9 14 0,0
19.10.2018 18:00:00 7,3 2,0 0 0 6 3 N 1021,8 50 0,0
19.10.2018 17:00:00 10,7 3,0 2 1 6 3 SW 1022,0 50 0,0
19.10.2018 16:00:00 10,9 3,0 3 1 7 4 SW 1022,2 50 0,0
19.10.2018 15:00:00 11,1 1,9 3 2 9 5 WSW 1022,5 50 0,0
19.10.2018 14:00:00 10,4 1,5 5 3 9 5 W 1022,9 50 0,0
19.10.2018 13:00:00 9,5 0,9 4 2 8 4 W 1023,2 17 0,0
19.10.2018 12:00:00 6,7 1,8 3 1 6 3 WSW 1023,5 16 0,0
19.10.2018 11:00:00 3,7 0,6 0 0 6 3 N 1023,5 14 0,0
19.10.2018 10:00:00 1,8 -0,8 0 0 6 3 N 1023,4 31 0,0
19.10.2018 09:00:00 -1,0 -3,5 2 1 6 3 SW 1023,4 43 0,0
19.10.2018 08:00:00 -2,5 -5,3 0 0 5 3 N 1023,0 35 0,0
19.10.2018 07:00:00 -1,3 -3,2 0 0 7 4 N 1022,9 36 0,0
19.10.2018 06:00:00 - - - - 7 4 - - - -
19.10.2018 05:00:00 -1,5 -3,7 2 1 6 4 SW 1022,5 28 0,0
19.10.2018 04:00:00 -1,0 -2,9 3 2 6 4 WSW 1022,3 46 0,0
19.10.2018 03:00:00 -0,1 -2,2 0 0 4 2 N 1022,2 29 0,0
19.10.2018 02:00:00 -0,2 -3,6 2 1 4 2 SW 1022,1 18 0,0
19.10.2018 01:00:00 0,5 -2,7 0 0 6 4 N 1022,2 23 0,0
19.10.2018 00:00:00 3,8 0,0 2 1 8 4 SW 1022,4 16 0,0
18.10.2018 23:00:00 3,6 -0,6 3 1 13 7 WSW 1021,8 14 0,0
18.10.2018 22:00:00 6,5 1,0 6 3 16 9 SW 1021,4 21 0,0
18.10.2018 21:00:00 6,4 0,7 9 5 16 9 W 1020,7 18 0,0
18.10.2018 20:00:00 7,1 1,8 9 5 15 8 W 1020,1 18 0,0
18.10.2018 19:00:00 7,3 1,6 9 5 12 6 W 1019,7 24 0,0
18.10.2018 18:00:00 8,4 0,8 6 3 24 13 W 1019,3 10 0,0
18.10.2018 17:00:00 11,7 1,9 8 5 24 13 WNW 1018,7 50 0,0
18.10.2018 16:00:00 13,3 1,9 15 8 26 14 WNW 1018,0 50 0,0
18.10.2018 15:00:00 13,7 2,0 14 7 33 18 WNW 1017,6 50 0,0
18.10.2018 14:00:00 13,5 3,3 18 10 36 19 NW 1017,0 50 0,0
18.10.2018 13:00:00 13,1 3,7 21 12 36 19 WNW 1016,8 36 0,0
18.10.2018 12:00:00 12,8 4,2 22 12 34 18 W 1016,6 36 0,0
18.10.2018 11:00:00 12,5 6,8 19 10 34 18 W 1016,2 34 0,0
18.10.2018 10:00:00 11,6 8,8 13 7 21 11 W 1015,9 19 0,0
18.10.2018 09:00:00 11,2 8,6 12 7 20 11 W 1015,6 21 0,0
18.10.2018 08:00:00 11,7 8,9 10 5 18 10 WSW 1015,1 19 0,0
18.10.2018 07:00:00 12,0 8,8 8 4 21 11 WSW 1014,9 21 0,0
18.10.2018 06:00:00 12,4 9,0 11 6 23 13 WSW 1015,0 22 0,0
18.10.2018 05:00:00 12,9 9,3 11 6 26 14 WSW 1015,0 23 0,0
18.10.2018 04:00:00 13,2 9,6 14 8 26 14 WSW 1015,2 18 0,0
18.10.2018 03:00:00 13,4 10,2 11 6 23 13 WSW 1015,4 11 0,0
18.10.2018 02:00:00 13,9 10,7 14 8 23 13 WSW 1015,7 11 0,0
18.10.2018 01:00:00 14,4 11,0 16 9 23 12 WSW 1016,1 12 0,0
18.10.2018 00:00:00 14,4 10,8 9 5 19 10 WSW 1016,0 17 0,0
17.10.2018 23:00:00 14,7 10,5 11 6 19 10 WSW 1016,0 21 0,0
17.10.2018 22:00:00 15,1 10,5 7 4 16 9 SW 1015,9 28 0,0
17.10.2018 21:00:00 15,3 10,5 7 4 15 8 SW 1016,1 20 0,0
17.10.2018 20:00:00 13,0 9,8 4 2 12 6 SSW 1016,2 12 0,0
17.10.2018 19:00:00 10,7 7,8 0 0 5 3 N 1016,2 4,5 0,0
17.10.2018 18:00:00 11,9 8,2 0 0 9 5 N 1016,4 10 0,0
17.10.2018 17:00:00 14,7 9,5 0 0 16 9 N 1016,5 19 0,0
17.10.2018 16:00:00 16,3 10,4 3 2 22 12 SSW 1016,6 22 0,0
17.10.2018 15:00:00 16,0 10,5 8 5 30 16 SW 1017,0 11 0,0
17.10.2018 14:00:00 15,3 10,5 13 7 30 16 WSW 1017,1 15 0,0
17.10.2018 13:00:00 14,5 10,5 7 4 18 10 SW 1017,3 11 0,0
17.10.2018 12:00:00 13,2 10,9 9 5 16 9 WSW 1017,6 7 0,0
17.10.2018 11:00:00 12,6 10,3 5 3 16 9 SW 1017,5 4,0 0,0
17.10.2018 10:00:00 12,7 10,1 7 4 12 7 WSW 1017,3 8 0,0
17.10.2018 09:00:00 12,1 8,9 2 1 8 4 SW 1017,1 8 0,0
17.10.2018 08:00:00 11,5 8,5 0 0 8 4 N 1017,0 10 0,0
17.10.2018 07:00:00 11,2 8,2 2 1 8 5 SW 1016,9 11 0,0
17.10.2018 06:00:00 10,9 8,1 2 1 11 6 SW 1016,7 11 0,0
17.10.2018 05:00:00 11,0 8,0 3 2 12 7 SSW 1016,8 11 0,0
17.10.2018 04:00:00 10,8 8,0 3 2 12 7 S 1017,0 11 0,0
17.10.2018 03:00:00 10,6 7,8 3 2 12 7 S 1017,3 12 0,0
17.10.2018 02:00:00 10,5 7,7 3 2 11 6 S 1017,7 15 0,0
17.10.2018 01:00:00 10,5 7,7 4 2 16 8 SE 1017,8 11 0,0
17.10.2018 00:00:00 11,0 7,9 4 2 16 8 S 1018,5 15 0,0
16.10.2018 23:00:00 11,3 8,2 4 2 11 6 ESE 1018,5 23 0,0
16.10.2018 22:00:00 11,1 7,8 3 1 10 5 ESE 1018,8 35 0,0
16.10.2018 21:00:00 10,8 7,9 4 2 13 7 ESE 1019,1 50 0,0
16.10.2018 20:00:00 10,9 7,8 5 3 15 8 E 1019,5 42 0,0
16.10.2018 19:00:00 10,9 7,9 10 5 15 8 E 1019,3 48 0,0
16.10.2018 18:00:00 11,0 7,9 9 5 16 9 E 1019,3 30 0,0
16.10.2018 17:00:00 11,2 7,9 8 4 - - ENE 1019,3 28 -
16.10.2018 16:00:00 11,4 8,3 - - - - - 1019,2 31 -
16.10.2018 15:00:00 11,6 8,0 11 6 20 11 E 1019,6 26 0,0
16.10.2018 14:00:00 11,8 7,9 12 6 20 11 ENE 1019,2 25 0,0
16.10.2018 13:00:00 11,4 8,3 8 4 14 7 ENE 1019,0 14 0,0
16.10.2018 12:00:00 11,4 8,3 6 3 - - NE 1019,1 14 0,0
16.10.2018 11:00:00 11,3 8,3 6 3 - - NE 1018,9 20 -
16.10.2018 10:00:00 11,2 8,6 5 3 8 5 ENE 1018,3 12 0,0
16.10.2018 09:00:00 9,9 7,1 0 0 4 2 N 1017,5 7 0,0
16.10.2018 08:00:00 8,9 6,7 0 0 4 2 N 1016,6 3,4 0,0
16.10.2018 07:00:00 8,5 6,6 0 0 5 3 N 1016,1 3,0 0,0
16.10.2018 06:00:00 8,2 6,2 3 2 6 3 WSW 1015,9 0,2 0,0
16.10.2018 05:00:00 9,8 7,6 2 1 6 3 SW 1015,1 6 0,0
16.10.2018 04:00:00 6,8 4,8 4 2 8 4 W 1014,8 0,2 0,0
16.10.2018 03:00:00 7,3 5,1 0 0 8 4 N 1014,2 0,4 0,0
16.10.2018 02:00:00 8,8 6,9 4 2 6 4 WSW 1014,3 8 0,0
16.10.2018 01:00:00 7,3 4,8 0 0 8 4 N 1013,9 2,3 0,0
16.10.2018 00:00:00 8,8 6,8 0 0 8 4 N 1013,4 7 0,0
15.10.2018 23:00:00 8,8 6,6 2 1 11 6 S 1013,2 8 0,0
15.10.2018 22:00:00 10,2 7,3 0 0 15 8 N 1012,9 8 0,0
15.10.2018 21:00:00 10,7 6,6 3 2 15 8 SSW 1013,0 16 0,0
15.10.2018 20:00:00 13,6 8,6 4 2 14 7 SSW 1012,9 18 0,0
15.10.2018 19:00:00 15,0 8,9 5 3 14 7 S 1012,7 12 0,0
15.10.2018 18:00:00 16,5 9,7 4 2 15 8 SSE 1012,7 25 0,0
15.10.2018 17:00:00 18,4 9,2 0 0 17 9 N 1012,4 13 0,0
15.10.2018 16:00:00 21,3 8,9 6 3 17 9 SSW 1012,5 16 0,0
15.10.2018 15:00:00 21,2 9,4 7 4 21 11 SSW 1012,6 20 0,0
15.10.2018 14:00:00 20,3 9,5 8 5 21 11 SSW 1013,0 16 0,0
15.10.2018 13:00:00 19,6 8,6 9 5 - - SSW 1013,1 14 -
15.10.2018 12:00:00 18,2 9,0 5 3 21 11 SSW 1013,5 15 0,0
15.10.2018 11:00:00 15,7 8,4 8 5 21 11 SSW 1013,5 10 0,0
15.10.2018 10:00:00 13,0 7,9 7 4 16 9 SSW 1013,6 13 0,0
15.10.2018 09:00:00 11,4 7,1 6 3 16 8 S 1013,5 14 0,0
15.10.2018 08:00:00 10,0 6,5 5 3 19 10 S 1013,1 10 0,0
15.10.2018 07:00:00 10,2 6,9 5 3 19 10 SSW 1013,2 12 0,0
15.10.2018 06:00:00 10,0 6,5 4 2 21 11 S 1012,9 10 0,0
15.10.2018 05:00:00 10,5 7,0 6 3 21 11 SSW 1012,8 10 0,0
15.10.2018 04:00:00 10,7 7,0 8 4 18 10 SSW 1012,3 12 0,0
15.10.2018 03:00:00 11,3 7,2 6 3 21 11 S 1012,4 16 0,0
15.10.2018 02:00:00 12,3 7,6 9 5 27 15 SSW 1012,5 17 0,0
15.10.2018 01:00:00 12,9 7,3 9 5 29 15 SSW 1012,5 18 0,0
15.10.2018 00:00:00 13,3 7,7 12 6 29 15 SSW 1012,7 17 0,0
14.10.2018 23:00:00 12,3 7,4 7 4 26 14 SSW 1012,9 15 0,0
14.10.2018 22:00:00 12,8 7,5 6 4 27 15 SSW 1012,9 12 0,0
14.10.2018 21:00:00 12,9 7,6 10 5 27 15 S 1012,9 10 0,0
14.10.2018 20:00:00 12,9 7,8 6 3 23 13 S 1013,5 12 0,0
14.10.2018 19:00:00 13,6 7,6 4 2 22 12 S 1014,1 12 0,0

tt = Température de l'air
td = dewpoint
ff = Vitesse du vent
fx = gusts
dd = Direction du vent
ppp = reduced air pressure
vv = visibility
rr = Quantités de précipitations

stations d'obs. à proximité